Starlink 5636

operational
NORAD ID: 55454 Int'l Des: 2023-015 Owner: SPXS Country: US Constellation: starlink
LEOCIRCULAR

About Starlink 5636

Description loading...

Live Position

Loading 3D Globe...

Upcoming Passes

Altitude History

Altitude vs Time

uPlot chart will show altitude changes over time

Two-Line Element Set

1 55454U 23015F 25305.00206781 -.00000200 00000-0 26346-6 0 9993
2 55454 43.0029 305.4409 0001089 276.8299 83.2419 15.02533455151398
Epoch: Nov 1, 2025 • Age: 21 hours

Current Status

Altitude 562.5 km
Velocity 7.59 km/s
Sub-Earth Point 41.31°N, 12.04°E
Launch Date Feb 2, 2023
Age 2.7 years
Type internet

Technical Details

Classification Payload
Mass 305.00 kg
Dry Mass 290.00 kg
Total Mass 305.00 kg
Length 0.20 m
Diameter 2.80 m
Span 9.00 m
Shape Box + pan
Manufacturer SPXS
Bus Type Starlink
Phase Status In Orbit
Owner/State SPXS/US

Large Constellations

Loading constellations...